Regional Weather Roundup
Issued by NWS

Home | Current Version | Previous Version | Text Only | Print | Product List | Glossary On
Versions: 1 2 3 4 5 6 7 8 9 10 11 12 13 14 15 16 17 18 19 20 21 22 23 24 25 26 27 28 29 30 31 32 33 34 35 36 37 38 39 40 41 42 43 44 45 46 47 48 49 50
000
ASUS43 KTOP 251108
RWRKS

WEATHER ROUNDUP FOR KANSAS
NATIONAL WEATHER SERVICE GOODLAND KS
600 AM CDT WED MAY 25 2016

NOTE:  "FAIR" INDICATES FEW OR NO CLOUDS BELOW 12,000 FEET WITH NO
SIGNIFICANT WEATHER AND/OR OBSTRUCTIONS TO VISIBILITY.

KSZ001>006-013>018-027>032-041>047-251200-
NORTHWEST KANSAS

CITY           SKY/WX    TMP DP  RH WIND       PRES   REMARKS
GOODLAND       CLOUDY    56  56 100 NE17G25   29.86R FOG
HAYS           MOCLDY    55  52  88 NE12      29.82R
HILL CITY      CLOUDY    62  56  80 N14       29.85R
RUSSELL        MOCLDY    61  58  90 SE7       29.80R
$$

KSZ061>065-074>080-084>089-251200-
SOUTHWEST KANSAS

CITY           SKY/WX    TMP DP  RH WIND       PRES   REMARKS
DODGE CITY     CLOUDY    66  66 100 SE8       29.79R FOG
ELKHART          N/A     57  33  40 W12         N/A
GARDEN CITY    CLEAR     58  56  93 W8        29.77R
GREAT BEND     CLOUDY    63  54  72 SE21G31   29.78F
LIBERAL        CLEAR     59  54  82 W10       29.81R
PRATT          CLOUDY    61  60  97 SE17G23   29.80S
$$

KSZ066>073-081>083-090>101-251200-
SOUTHEAST KANSAS

CITY           SKY/WX    TMP DP  RH WIND       PRES   REMARKS
CHANUTE        CLOUDY    65  60  84 E8        29.89F
COFFEYVILLE    TSTM      64  62  93 E10       29.94F FOG
HUTCHINSON     CLOUDY    65  62  90 S14       29.81S
MEDICINE LODGE   N/A     65  62  90 SE12G21   29.80S
NEWTON         MOCLDY    63  57  82 SE18G24   29.84F
PARSONS        LGT RAIN  64  63  96 VRB6      29.94F
WICHITA INTL   CLOUDY    67  61  81 SE15      29.83S
WICHITA JABRA  CLOUDY    65  62  90 SE14      29.83F
WICHITA MCCONL CLOUDY    66  61  84 SE17      29.84R
WINFIELD       CLOUDY    64  62  93 E14G26    29.87F
$$

KSZ007>012-019>026-033>040-048>060-102>105-251200-
NORTHEAST KANSAS

CITY           SKY/WX    TMP DP  RH WIND       PRES   REMARKS
CONCORDIA      LGT RAIN  60  57  89 E3        29.87R
EMPORIA        CLOUDY    66  56  70 SE17G25   29.80F
LAWRENCE       CLOUDY    69  55  60 SE23G36   29.75F
MANHATTAN      CLOUDY    63  60  90 CALM      29.78F
MARYSVILLE     CLOUDY    61  59  94 NW8       29.88R
OLATHE IND     CLOUDY    69  55  60 S25G35    29.80F
OLATHE EXE     CLOUDY    70  53  54 S21G36    29.82F
SALINA         CLOUDY    65  61  87 S13       29.78F
TOPEKA BILLARD CLOUDY    69  55  60 VRB6      29.79F
TOPEKA FORBES  CLOUDY    70  56  61 S16G25    29.77F
$$



USA.gov is the U.S. government's official web portal to all federal, state and local government web resources and services.